Time,TemperatureF,DewpointF,PressureIn,WindDirection,WindDirectionDegrees,WindSpeedMPH,WindSpeedGustMPH,Humidity,HourlyPrecipIn,Conditions,Clouds,dailyrainin,SoftwareType,DateUTC
2013-04-28 00:00:00,50.0,27.8,30.25,SW,232,0.0,3.1,42,0.00,,CLR,0.00,VWS V13.00,2013-04-28 04:00:00,
2013-04-28 00:01:00,49.8,28.2,30.25,SW,233,0.0,3.1,43,0.00,,CLR,0.00,VWS V13.00,2013-04-28 04:01:00,
2013-04-28 00:02:00,49.8,28.2,30.25,SW,232,0.0,0.0,43,0.00,,CLR,0.00,VWS V13.00,2013-04-28 04:02:00,
2013-04-28 00:07:00,49.8,28.2,30.25,SW,233,2.7,3.1,43,0.00,,CLR,0.00,VWS V13.00,2013-04-28 04:07:00,
2013-04-28 00:12:00,49.5,28.5,30.25,WSW,239,2.7,3.6,44,0.00,,CLR,0.00,VWS V13.00,2013-04-28 04:12:00,
2013-04-28 00:17:00,48.9,28.5,30.25,WSW,243,2.7,3.6,45,0.00,,CLR,0.00,VWS V13.00,2013-04-28 04:17:00,
2013-04-28 00:22:00,48.7,29.4,30.25,WSW,243,2.2,3.6,47,0.00,,CLR,0.00,VWS V13.00,2013-04-28 04:22:00,
2013-04-28 00:27:00,48.6,29.3,30.25,WSW,237,3.1,3.6,47,0.00,,CLR,0.00,VWS V13.00,2013-04-28 04:27:00,
2013-04-28 00:32:00,48.2,28.9,30.25,WSW,237,2.2,3.6,47,0.00,,CLR,0.00,VWS V13.00,2013-04-28 04:32:00,
2013-04-28 00:37:00,48.0,29.3,30.25,WSW,237,2.7,3.6,48,0.00,,CLR,0.00,VWS V13.00,2013-04-28 04:37:00,
2013-04-28 00:43:00,47.7,29.0,30.25,WSW,237,3.1,3.1,48,0.00,,CLR,0.00,VWS V13.00,2013-04-28 04:43:00,
2013-04-28 00:48:00,47.1,29.0,30.25,WSW,237,2.7,3.6,49,0.00,,CLR,0.00,VWS V13.00,2013-04-28 04:48:00,
2013-04-28 00:53:00,46.6,29.0,30.25,SW,226,3.1,3.6,50,0.00,,CLR,0.00,VWS V13.00,2013-04-28 04:53:00,
2013-04-28 00:58:00,46.4,29.3,30.25,SW,226,2.7,3.6,51,0.00,,CLR,0.00,VWS V13.00,2013-04-28 04:58:00,
2013-04-28 01:03:00,46.6,29.0,30.25,SW,226,2.7,3.6,50,0.00,,CLR,0.00,VWS V13.00,2013-04-28 05:03:00,
2013-04-28 01:08:00,46.8,29.1,30.25,SW,226,2.7,3.6,50,0.00,,CLR,0.00,VWS V13.00,2013-04-28 05:08:00,
2013-04-28 01:13:00,45.9,29.2,30.25,SW,226,3.1,3.6,52,0.00,,CLR,0.00,VWS V13.00,2013-04-28 05:13:00,
2013-04-28 01:18:00,45.9,29.2,30.25,SW,226,2.7,3.6,52,0.00,,CLR,0.00,VWS V13.00,2013-04-28 05:18:00,
2013-04-28 01:23:00,45.7,29.1,30.25,SW,226,2.7,2.7,52,0.00,,CLR,0.00,VWS V13.00,2013-04-28 05:23:00,
2013-04-28 01:28:00,45.9,29.2,30.25,SW,226,2.7,2.7,52,0.00,,CLR,0.00,VWS V13.00,2013-04-28 05:28:00,
2013-04-28 01:33:00,46.0,29.4,30.25,SW,226,0.0,2.7,52,0.00,,CLR,0.00,VWS V13.00,2013-04-28 05:33:00,
2013-04-28 01:38:00,45.9,29.2,30.25,SW,226,0.0,2.7,52,0.00,,CLR,0.00,VWS V13.00,2013-04-28 05:38:00,
2013-04-28 01:43:00,45.7,29.1,30.25,SW,226,0.0,0.0,52,0.00,,CLR,0.00,VWS V13.00,2013-04-28 05:43:00,
2013-04-28 01:48:00,45.5,28.9,30.22,SW,226,0.0,0.0,52,0.00,,CLR,0.00,VWS V13.00,2013-04-28 05:48:00,
2013-04-28 01:53:00,45.3,29.2,30.22,SW,226,0.0,0.0,53,0.00,,CLR,0.00,VWS V13.00,2013-04-28 05:53:00,
2013-04-28 01:59:00,45.1,29.0,30.22,SW,226,0.0,0.0,53,0.00,,CLR,0.00,VWS V13.00,2013-04-28 05:59:00,
2013-04-28 02:04:00,45.0,29.3,30.22,SW,226,0.0,0.0,54,0.00,,CLR,0.00,VWS V13.00,2013-04-28 06:04:00,
2013-04-28 02:09:00,45.1,29.5,30.22,SW,226,0.0,0.0,54,0.00,,CLR,0.00,VWS V13.00,2013-04-28 06:09:00,
2013-04-28 02:14:00,45.3,29.7,30.22,SW,226,0.0,0.0,54,0.00,,CLR,0.00,VWS V13.00,2013-04-28 06:14:00,
2013-04-28 02:19:00,44.8,29.2,30.22,SW,226,0.0,0.0,54,0.00,,CLR,0.00,VWS V13.00,2013-04-28 06:19:00,
2013-04-28 02:24:00,45.0,29.3,30.22,SW,226,0.0,0.0,54,0.00,,CLR,0.00,VWS V13.00,2013-04-28 06:24:00,
2013-04-28 02:29:00,45.1,29.5,30.22,SW,226,0.0,0.0,54,0.00,,CLR,0.00,VWS V13.00,2013-04-28 06:29:00,
2013-04-28 02:34:00,44.8,29.6,30.22,SW,226,0.0,0.0,55,0.00,,CLR,0.00,VWS V13.00,2013-04-28 06:34:00,
2013-04-28 02:39:00,45.0,29.8,30.22,SW,226,0.0,0.0,55,0.00,,CLR,0.00,VWS V13.00,2013-04-28 06:39:00,
2013-04-28 02:44:00,44.2,29.5,30.22,SW,226,0.0,0.0,56,0.00,,CLR,0.00,VWS V13.00,2013-04-28 06:44:00,
2013-04-28 02:49:00,44.2,29.5,30.22,SW,226,0.0,0.0,56,0.00,,CLR,0.00,VWS V13.00,2013-04-28 06:49:00,
2013-04-28 02:54:00,44.4,29.7,30.22,SW,226,0.0,0.0,56,0.00,,CLR,0.00,VWS V13.00,2013-04-28 06:54:00,
2013-04-28 02:59:00,43.9,29.2,30.22,SW,226,0.0,0.0,56,0.00,,CLR,0.00,VWS V13.00,2013-04-28 06:59:00,
2013-04-28 03:04:00,43.3,29.1,30.22,SW,226,0.0,0.0,57,0.00,,CLR,0.00,VWS V13.00,2013-04-28 07:04:00,
2013-04-28 03:09:00,43.2,29.4,30.22,SW,226,2.7,3.1,58,0.00,,CLR,0.00,VWS V13.00,2013-04-28 07:09:00,
2013-04-28 03:14:00,43.3,30.0,30.22,SW,226,2.7,3.1,59,0.00,,CLR,0.00,VWS V13.00,2013-04-28 07:14:00,
2013-04-28 03:20:00,43.2,29.8,30.22,SW,226,2.2,3.1,59,0.00,,CLR,0.00,VWS V13.00,2013-04-28 07:20:00,
2013-04-28 03:25:00,42.6,29.3,30.22,SW,226,0.0,0.0,59,0.00,,CLR,0.00,VWS V13.00,2013-04-28 07:25:00,
2013-04-28 03:30:00,42.4,29.5,30.22,SW,226,0.0,2.7,60,0.00,,CLR,0.00,VWS V13.00,2013-04-28 07:30:00,
2013-04-28 03:35:00,42.8,29.9,30.22,SW,226,0.0,2.7,60,0.00,,CLR,0.00,VWS V13.00,2013-04-28 07:35:00,
2013-04-28 03:40:00,42.4,29.5,30.22,SW,226,0.0,2.7,60,0.00,,CLR,0.00,VWS V13.00,2013-04-28 07:40:00,
2013-04-28 03:45:00,42.3,29.8,30.22,SW,226,0.0,0.0,61,0.00,,CLR,0.00,VWS V13.00,2013-04-28 07:45:00,
2013-04-28 03:50:00,42.1,29.6,30.22,SW,226,0.0,0.0,61,0.00,,CLR,0.00,VWS V13.00,2013-04-28 07:50:00,
2013-04-28 03:55:00,41.7,29.7,30.22,SW,226,0.0,0.0,62,0.00,,CLR,0.00,VWS V13.00,2013-04-28 07:55:00,
2013-04-28 04:00:00,41.4,29.3,30.22,SW,226,0.0,0.0,62,0.00,,CLR,0.00,VWS V13.00,2013-04-28 08:00:00,
2013-04-28 04:05:00,41.2,29.6,30.22,SW,226,0.0,0.0,63,0.00,,CLR,0.00,VWS V13.00,2013-04-28 08:05:00,
2013-04-28 04:10:00,41.2,29.6,30.22,SW,226,0.0,0.0,63,0.00,,CLR,0.00,VWS V13.00,2013-04-28 08:10:00,
2013-04-28 04:15:00,41.0,29.4,30.22,SW,226,0.0,0.0,63,0.00,,CLR,0.00,VWS V13.00,2013-04-28 08:15:00,
2013-04-28 04:20:00,41.2,29.6,30.22,SW,226,0.0,0.0,63,0.00,,CLR,0.00,VWS V13.00,2013-04-28 08:20:00,
2013-04-28 04:25:00,40.8,29.6,30.22,SW,226,2.7,2.7,64,0.00,,CLR,0.00,VWS V13.00,2013-04-28 08:25:00,
2013-04-28 04:30:00,40.6,29.4,30.22,SW,226,2.7,2.7,64,0.00,,CLR,0.00,VWS V13.00,2013-04-28 08:30:00,
2013-04-28 04:35:00,40.6,29.8,30.22,SW,226,0.0,2.7,65,0.00,,CLR,0.00,VWS V13.00,2013-04-28 08:35:00,
2013-04-28 04:40:00,40.5,29.6,30.22,SW,226,2.2,2.7,65,0.00,,CLR,0.00,VWS V13.00,2013-04-28 08:40:00,
2013-04-28 04:46:00,40.3,29.8,30.22,SW,226,2.7,3.1,66,0.00,,CLR,0.00,VWS V13.00,2013-04-28 08:46:00,
2013-04-28 04:51:00,40.6,30.2,30.22,SW,226,2.2,3.1,66,0.00,,CLR,0.00,VWS V13.00,2013-04-28 08:51:00,
2013-04-28 04:56:00,40.6,30.5,30.22,SW,226,0.0,3.1,67,0.00,,CLR,0.00,VWS V13.00,2013-04-28 08:56:00,
2013-04-28 05:01:00,39.9,29.9,30.22,SW,226,2.7,3.1,67,0.00,,CLR,0.00,VWS V13.00,2013-04-28 09:01:00,
2013-04-28 05:06:00,39.9,29.9,30.22,SW,226,0.0,3.1,67,0.00,,CLR,0.00,VWS V13.00,2013-04-28 09:06:00,
2013-04-28 05:11:00,39.7,30.1,30.22,SW,226,0.0,3.1,68,0.00,,CLR,0.00,VWS V13.00,2013-04-28 09:11:00,
2013-04-28 05:16:00,39.4,29.7,30.22,SW,226,0.0,3.1,68,0.00,,CLR,0.00,VWS V13.00,2013-04-28 09:16:00,
2013-04-28 05:21:00,39.4,29.7,30.22,SW,226,0.0,0.0,68,0.00,,CLR,0.00,VWS V13.00,2013-04-28 09:21:00,
2013-04-28 05:26:00,39.2,29.5,30.22,SW,226,0.0,0.0,68,0.00,,CLR,0.00,VWS V13.00,2013-04-28 09:26:00,
2013-04-28 05:31:00,39.2,29.9,30.22,SW,226,0.0,0.0,69,0.00,,CLR,0.00,VWS V13.00,2013-04-28 09:31:00,
2013-04-28 05:36:00,39.2,29.9,30.22,SW,226,0.0,0.0,69,0.00,,CLR,0.00,VWS V13.00,2013-04-28 09:36:00,
2013-04-28 05:41:00,39.2,29.9,30.22,SW,226,0.0,0.0,69,0.00,,CLR,0.00,VWS V13.00,2013-04-28 09:41:00,
2013-04-28 05:46:00,38.8,29.9,30.22,SW,226,0.0,0.0,70,0.00,,CLR,0.00,VWS V13.00,2013-04-28 09:46:00,
2013-04-28 05:51:00,38.7,29.7,30.22,SW,226,0.0,0.0,70,0.00,,CLR,0.00,VWS V13.00,2013-04-28 09:51:00,
2013-04-28 05:56:00,38.5,29.6,30.22,SW,226,0.0,0.0,70,0.00,,CLR,0.00,VWS V13.00,2013-04-28 09:56:00,
2013-04-28 06:01:00,38.7,30.1,30.22,SW,226,0.0,0.0,71,0.00,,CLR,0.00,VWS V13.00,2013-04-28 10:01:00,
2013-04-28 06:07:00,38.5,29.9,30.22,SW,226,0.0,0.0,71,0.00,,CLR,0.00,VWS V13.00,2013-04-28 10:07:00,
2013-04-28 06:12:00,38.7,30.1,30.22,SW,226,0.0,0.0,71,0.00,,CLR,0.00,VWS V13.00,2013-04-28 10:12:00,
2013-04-28 06:17:00,39.0,30.4,30.22,SW,226,0.0,0.0,71,0.00,,CLR,0.00,VWS V13.00,2013-04-28 10:17:00,
2013-04-28 06:22:00,38.8,30.6,30.22,SW,226,0.0,0.0,72,0.00,,CLR,0.00,VWS V13.00,2013-04-28 10:22:00,
2013-04-28 06:27:00,39.0,30.8,30.22,SW,226,0.0,0.0,72,0.00,,CLR,0.00,VWS V13.00,2013-04-28 10:27:00,
2013-04-28 06:32:00,39.4,30.8,30.22,SW,226,0.0,0.0,71,0.00,,CLR,0.00,VWS V13.00,2013-04-28 10:32:00,
2013-04-28 06:37:00,40.3,31.6,30.22,SW,226,0.0,0.0,71,0.00,,CLR,0.00,VWS V13.00,2013-04-28 10:37:00,
2013-04-28 06:42:00,40.5,31.8,30.22,SW,226,0.0,2.7,71,0.00,,CLR,0.00,VWS V13.00,2013-04-28 10:42:00,
2013-04-28 06:47:00,41.5,32.5,30.22,SW,226,0.0,2.7,70,0.00,,CLR,0.00,VWS V13.00,2013-04-28 10:47:00,
2013-04-28 06:52:00,42.4,33.0,30.22,SW,226,0.0,2.7,69,0.00,,CLR,0.00,VWS V13.00,2013-04-28 10:52:00,
2013-04-28 06:57:00,45.0,35.0,30.22,SW,226,0.0,2.7,68,0.00,,CLR,0.00,VWS V13.00,2013-04-28 10:57:00,
2013-04-28 07:02:00,46.4,35.7,30.22,SW,226,0.0,0.0,66,0.00,,CLR,0.00,VWS V13.00,2013-04-28 11:02:00,
2013-04-28 07:07:00,47.1,35.6,30.22,SW,226,0.0,0.0,64,0.00,,CLR,0.00,VWS V13.00,2013-04-28 11:07:00,
2013-04-28 07:12:00,46.9,35.0,30.22,SW,226,0.0,0.0,63,0.00,,CLR,0.00,VWS V13.00,2013-04-28 11:12:00,
2013-04-28 07:17:00,47.1,34.8,30.25,SW,226,0.0,0.0,62,0.00,,CLR,0.00,VWS V13.00,2013-04-28 11:17:00,
2013-04-28 07:22:00,47.7,35.3,30.25,SW,226,0.0,0.0,62,0.00,,CLR,0.00,VWS V13.00,2013-04-28 11:22:00,
2013-04-28 07:27:00,48.7,35.9,30.25,SW,226,0.0,0.0,61,0.00,,CLR,0.00,VWS V13.00,2013-04-28 11:27:00,
2013-04-28 07:32:00,49.5,36.6,30.25,SW,226,0.0,0.0,61,0.00,,CLR,0.00,VWS V13.00,2013-04-28 11:32:00,
2013-04-28 07:37:00,51.3,37.0,30.25,SW,226,2.2,2.2,58,0.00,,CLR,0.00,VWS V13.00,2013-04-28 11:37:00,
2013-04-28 07:42:00,54.0,37.7,30.25,SW,226,2.7,2.7,54,0.00,,CLR,0.00,VWS V13.00,2013-04-28 11:42:00,
2013-04-28 07:48:00,54.5,36.8,30.25,SW,226,2.2,3.1,51,0.00,,CLR,0.00,VWS V13.00,2013-04-28 11:48:00,
2013-04-28 07:53:00,54.7,35.9,30.25,SW,226,0.0,3.1,49,0.00,,CLR,0.00,VWS V13.00,2013-04-28 11:53:00,
2013-04-28 07:58:00,55.6,36.2,30.25,SW,226,2.2,3.1,48,0.00,,CLR,0.00,VWS V13.00,2013-04-28 11:58:00,
2013-04-28 08:03:00,57.9,37.3,30.25,SW,224,4.0,4.0,46,0.00,,CLR,0.00,VWS V13.00,2013-04-28 12:03:00,
2013-04-28 08:08:00,57.7,36.6,30.25,SW,219,3.1,4.0,45,0.00,,CLR,0.00,VWS V13.00,2013-04-28 12:08:00,
2013-04-28 08:13:00,58.8,37.0,30.25,SSW,212,4.0,4.0,44,0.00,,CLR,0.00,VWS V13.00,2013-04-28 12:13:00,
2013-04-28 08:18:00,59.0,36.0,30.25,SSW,192,0.0,4.0,42,0.00,,CLR,0.00,VWS V13.00,2013-04-28 12:18:00,
2013-04-28 08:23:00,58.3,35.3,30.25,South,187,3.1,4.9,42,0.00,,CLR,0.00,VWS V13.00,2013-04-28 12:23:00,
2013-04-28 08:28:00,58.5,34.9,30.25,SSW,209,2.2,4.9,41,0.00,,CLR,0.00,VWS V13.00,2013-04-28 12:28:00,
2013-04-28 08:33:00,60.8,36.3,30.25,SW,228,3.6,4.9,40,0.00,,CLR,0.00,VWS V13.00,2013-04-28 12:33:00,
2013-04-28 08:38:00,63.0,37.6,30.25,SSW,213,4.0,4.9,39,0.00,,CLR,0.00,VWS V13.00,2013-04-28 12:38:00,
2013-04-28 08:43:00,63.5,37.5,30.25,SSE,165,4.0,4.0,38,0.00,,CLR,0.00,VWS V13.00,2013-04-28 12:43:00,
2013-04-28 08:48:00,62.8,36.2,30.25,SSE,156,0.0,4.5,37,0.00,,CLR,0.00,VWS V13.00,2013-04-28 12:48:00,
2013-04-28 08:53:00,63.1,36.5,30.25,SSW,198,2.7,5.8,37,0.00,,CLR,0.00,VWS V13.00,2013-04-28 12:53:00,
2013-04-28 08:58:00,63.9,36.4,30.25,South,172,3.6,5.8,36,0.00,,CLR,0.00,VWS V13.00,2013-04-28 12:58:00,
2013-04-28 09:03:00,64.2,36.7,30.25,SW,222,2.2,5.4,36,0.00,,CLR,0.00,VWS V13.00,2013-04-28 13:03:00,
2013-04-28 09:08:00,64.8,36.5,30.25,SW,218,3.1,5.4,35,0.00,,CLR,0.00,VWS V13.00,2013-04-28 13:08:00,
2013-04-28 09:13:00,65.5,37.1,30.25,SW,225,4.9,5.4,35,0.00,,CLR,0.00,VWS V13.00,2013-04-28 13:13:00,
2013-04-28 09:18:00,66.0,37.6,30.25,SSW,192,3.1,5.8,35,0.00,,CLR,0.00,VWS V13.00,2013-04-28 13:18:00,
2013-04-28 09:24:00,66.6,37.3,30.25,South,180,4.0,4.0,34,0.00,,CLR,0.00,VWS V13.00,2013-04-28 13:24:00,
2013-04-28 09:29:00,66.9,37.7,30.25,WSW,240,2.7,5.8,34,0.00,,CLR,0.00,VWS V13.00,2013-04-28 13:29:00,
2013-04-28 09:34:00,67.5,38.1,30.25,SW,219,2.2,5.8,34,0.00,,-RA,0.00,VWS V13.00,2013-04-28 13:34:00,
2013-04-28 09:39:00,66.4,36.4,30.25,WSW,244,3.1,5.8,33,0.00,,-RA,0.00,VWS V13.00,2013-04-28 13:39:00,
2013-04-28 09:44:00,67.3,37.2,30.25,WSW,248,0.0,3.6,33,0.00,,-RA,0.00,VWS V13.00,2013-04-28 13:44:00,
2013-04-28 09:49:00,67.1,37.1,30.25,NNW,328,4.0,6.3,33,0.00,,-RA,0.00,VWS V13.00,2013-04-28 13:49:00,
2013-04-28 09:54:00,66.9,36.9,30.25,WSW,246,5.8,6.3,33,0.00,,-RA,0.00,VWS V13.00,2013-04-28 13:54:00,
2013-04-28 09:59:00,67.1,37.1,30.25,West,259,4.0,6.3,33,0.00,,-RA,0.00,VWS V13.00,2013-04-28 13:59:00,
2013-04-28 10:04:00,67.8,37.7,30.25,SSW,208,3.6,5.4,33,0.00,,-RA,0.00,VWS V13.00,2013-04-28 14:04:00,
2013-04-28 10:09:00,68.4,37.4,30.25,SW,222,3.1,5.4,32,0.00,,-RA,0.00,VWS V13.00,2013-04-28 14:09:00,
2013-04-28 10:14:00,68.9,38.6,30.25,SW,221,2.7,5.4,33,0.00,,-RA,0.00,VWS V13.00,2013-04-28 14:14:00,
2013-04-28 10:19:00,69.1,38.0,30.25,South,174,3.1,6.3,32,0.00,,-RA,0.00,VWS V13.00,2013-04-28 14:19:00,
2013-04-28 10:24:00,69.6,38.5,30.25,SSE,147,3.1,5.8,32,0.00,,-RA,0.00,VWS V13.00,2013-04-28 14:24:00,
2013-04-28 10:30:00,69.6,38.5,30.25,WSW,252,0.0,5.8,32,0.00,,-RA,0.00,VWS V13.00,2013-04-28 14:30:00,
2013-04-28 10:35:00,69.6,38.5,30.25,NNW,332,0.0,8.1,32,0.00,,CLR,0.00,VWS V13.00,2013-04-28 14:35:00,
2013-04-28 10:40:00,69.4,37.5,30.25,West,273,8.1,8.1,31,0.00,,CLR,0.00,VWS V13.00,2013-04-28 14:40:00,
2013-04-28 10:45:00,69.8,37.8,30.25,South,181,4.0,7.2,31,0.00,,CLR,0.00,VWS V13.00,2013-04-28 14:45:00,
2013-04-28 10:50:00,70.3,38.3,30.25,SSW,203,0.0,7.2,31,0.00,,CLR,0.00,VWS V13.00,2013-04-28 14:50:00,
2013-04-28 10:55:00,71.1,38.9,30.25,South,189,3.1,7.2,31,0.00,,CLR,0.00,VWS V13.00,2013-04-28 14:55:00,
2013-04-28 11:00:00,71.6,38.6,30.25,South,183,0.0,7.2,30,0.00,,CLR,0.00,VWS V13.00,2013-04-28 15:00:00,
2013-04-28 11:05:00,72.0,38.9,30.25,WSW,255,4.9,6.3,30,0.00,,CLR,0.00,VWS V13.00,2013-04-28 15:05:00,
2013-04-28 11:10:00,71.4,37.5,30.25,SSE,163,0.0,6.3,29,0.00,,CLR,0.00,VWS V13.00,2013-04-28 15:10:00,
2013-04-28 11:15:00,72.5,39.3,30.25,SE,126,4.0,6.3,30,0.00,,CLR,0.00,VWS V13.00,2013-04-28 15:15:00,
2013-04-28 11:20:00,72.9,38.8,30.25,South,173,5.8,6.3,29,0.00,,CLR,0.00,VWS V13.00,2013-04-28 15:20:00,
2013-04-28 11:25:00,73.2,39.1,30.25,SW,223,2.7,6.3,29,0.00,,CLR,0.00,VWS V13.00,2013-04-28 15:25:00,
2013-04-28 11:30:00,73.4,38.3,30.22,WNW,284,6.3,7.6,28,0.00,,CLR,0.00,VWS V13.00,2013-04-28 15:30:00,
2013-04-28 11:35:00,72.3,37.4,30.22,West,264,0.0,7.6,28,0.00,,-RA,0.00,VWS V13.00,2013-04-28 15:35:00,
2013-04-28 11:40:00,72.5,37.6,30.22,SE,133,5.4,7.6,28,0.00,,-RA,0.00,VWS V13.00,2013-04-28 15:40:00,
2013-04-28 11:45:00,73.8,38.7,30.22,SSE,148,6.3,6.3,28,0.00,,-RA,0.00,VWS V13.00,2013-04-28 15:45:00,
2013-04-28 11:51:00,73.0,37.1,30.22,SSW,199,3.6,11.0,27,0.00,,-RA,0.00,VWS V13.00,2013-04-28 15:51:00,
2013-04-28 11:56:00,73.4,37.4,30.22,SE,141,8.1,11.0,27,0.00,,-RA,0.00,VWS V13.00,2013-04-28 15:56:00,
2013-04-28 12:01:00,73.4,36.5,30.22,West,262,5.8,11.0,26,0.00,,-RA,0.00,VWS V13.00,2013-04-28 16:01:00,
2013-04-28 12:06:00,73.2,36.3,30.22,SSW,196,5.8,8.1,26,0.00,,-RA,0.00,VWS V13.00,2013-04-28 16:06:00,
2013-04-28 12:11:00,73.9,36.9,30.22,SSW,207,0.0,8.1,26,0.00,,-RA,0.00,VWS V13.00,2013-04-28 16:11:00,
2013-04-28 12:16:00,73.0,36.2,30.22,SSE,156,5.4,8.1,26,0.00,,-RA,0.00,VWS V13.00,2013-04-28 16:16:00,
2013-04-28 12:21:00,73.6,36.6,30.22,South,185,5.8,5.8,26,0.00,,-RA,0.00,VWS V13.00,2013-04-28 16:21:00,
2013-04-28 12:26:00,73.4,35.5,30.22,SSE,167,4.0,8.3,25,0.00,,-RA,0.00,VWS V13.00,2013-04-28 16:26:00,
2013-04-28 12:31:00,74.1,37.1,30.22,SSE,162,5.4,8.3,26,0.00,,-RA,0.00,VWS V13.00,2013-04-28 16:31:00,
2013-04-28 12:36:00,73.9,35.9,30.22,SSW,194,6.3,8.3,25,0.00,,CLR,0.00,VWS V13.00,2013-04-28 16:36:00,
2013-04-28 12:41:00,73.6,35.6,30.22,West,275,7.6,8.1,25,0.00,,CLR,0.00,VWS V13.00,2013-04-28 16:41:00,
2013-04-28 12:46:00,73.9,36.9,30.22,SSE,166,5.4,8.3,26,0.00,,CLR,0.00,VWS V13.00,2013-04-28 16:46:00,
2013-04-28 12:51:00,74.3,36.2,30.22,SSE,164,8.7,8.7,25,0.00,,CLR,0.00,VWS V13.00,2013-04-28 16:51:00,
2013-04-28 12:56:00,73.6,35.6,30.22,SSE,162,6.3,10.1,25,0.00,,CLR,0.00,VWS V13.00,2013-04-28 16:56:00,
2013-04-28 13:01:00,73.8,35.8,30.22,West,281,4.0,5.4,25,0.00,,CLR,0.00,VWS V13.00,2013-04-28 17:01:00,
2013-04-28 13:06:00,74.7,36.5,30.22,South,172,5.8,8.3,25,0.00,,CLR,0.00,VWS V13.00,2013-04-28 17:06:00,
2013-04-28 13:11:00,74.8,36.7,30.22,SSE,167,6.3,8.3,25,0.00,,CLR,0.00,VWS V13.00,2013-04-28 17:11:00,
2013-04-28 13:17:00,73.9,35.9,30.22,SE,145,4.0,11.4,25,0.00,,CLR,0.00,VWS V13.00,2013-04-28 17:17:00,
2013-04-28 13:22:00,74.1,36.1,30.22,SSW,206,3.1,5.8,25,0.00,,CLR,0.00,VWS V13.00,2013-04-28 17:22:00,
2013-04-28 13:27:00,73.9,35.9,30.22,SW,220,6.3,8.7,25,0.00,,CLR,0.00,VWS V13.00,2013-04-28 17:27:00,
2013-04-28 13:32:00,73.4,35.5,30.19,SSE,155,10.5,10.5,25,0.00,,CLR,0.00,VWS V13.00,2013-04-28 17:32:00,
2013-04-28 13:37:00,74.5,36.4,30.19,South,182,6.3,10.5,25,0.00,,CLR,0.00,VWS V13.00,2013-04-28 17:37:00,
2013-04-28 13:42:00,75.4,37.2,30.19,South,184,8.1,8.3,25,0.00,,CLR,0.00,VWS V13.00,2013-04-28 17:42:00,
2013-04-28 13:47:00,75.0,36.8,30.19,West,265,7.6,9.2,25,0.00,,CLR,0.00,VWS V13.00,2013-04-28 17:47:00,
2013-04-28 13:52:00,75.6,37.3,30.19,SE,141,2.7,9.2,25,0.00,,CLR,0.00,VWS V13.00,2013-04-28 17:52:00,
2013-04-28 13:57:00,74.7,36.5,30.19,South,177,4.9,10.5,25,0.00,,CLR,0.00,VWS V13.00,2013-04-28 17:57:00,
2013-04-28 14:02:00,74.7,36.5,30.19,SSW,197,5.8,8.1,25,0.00,,CLR,0.00,VWS V13.00,2013-04-28 18:02:00,
2013-04-28 14:07:00,74.7,36.5,30.19,SSE,161,6.3,10.5,25,0.00,,CLR,0.00,VWS V13.00,2013-04-28 18:07:00,
2013-04-28 14:12:00,74.7,36.5,30.19,SSW,199,7.6,11.0,25,0.00,,CLR,0.00,VWS V13.00,2013-04-28 18:12:00,
2013-04-28 14:17:00,74.5,36.4,30.19,South,169,3.6,11.0,25,0.00,,CLR,0.00,VWS V13.00,2013-04-28 18:17:00,
2013-04-28 14:22:00,74.8,36.7,30.19,WNW,285,0.0,7.6,25,0.00,,CLR,0.00,VWS V13.00,2013-04-28 18:22:00,
2013-04-28 14:27:00,74.8,36.7,30.19,SSE,159,7.2,8.1,25,0.00,,CLR,0.00,VWS V13.00,2013-04-28 18:27:00,
2013-04-28 14:33:00,74.3,36.2,30.19,SSE,157,6.3,11.9,25,0.00,,CLR,0.00,VWS V13.00,2013-04-28 18:33:00,
2013-04-28 14:38:00,74.1,36.1,30.19,South,183,7.6,11.9,25,0.00,,CLR,0.00,VWS V13.00,2013-04-28 18:38:00,
2013-04-28 14:43:00,73.4,35.5,30.19,SSE,162,12.8,12.8,25,0.00,,CLR,0.00,VWS V13.00,2013-04-28 18:43:00,
2013-04-28 14:48:00,73.4,35.5,30.19,SSE,149,6.3,12.8,25,0.00,,CLR,0.00,VWS V13.00,2013-04-28 18:48:00,
2013-04-28 14:53:00,73.6,35.6,30.19,SSW,201,5.4,12.8,25,0.00,,CLR,0.00,VWS V13.00,2013-04-28 18:53:00,
2013-04-28 14:58:00,73.2,35.3,30.19,SSE,168,8.1,12.8,25,0.00,,CLR,0.00,VWS V13.00,2013-04-28 18:58:00,
2013-04-28 15:03:00,72.7,34.9,30.19,SW,222,5.8,7.6,25,0.00,,CLR,0.00,VWS V13.00,2013-04-28 19:03:00,
2013-04-28 15:08:00,72.7,35.8,30.19,South,180,7.6,10.5,26,0.00,,CLR,0.00,VWS V13.00,2013-04-28 19:08:00,
2013-04-28 15:13:00,72.9,36.0,30.19,SSE,160,9.6,11.4,26,0.00,,CLR,0.00,VWS V13.00,2013-04-28 19:13:00,
2013-04-28 15:18:00,73.9,36.9,30.19,WSW,238,8.7,11.4,26,0.00,,CLR,0.00,VWS V13.00,2013-04-28 19:18:00,
2013-04-28 15:23:00,73.9,35.9,30.19,South,183,5.4,9.2,25,0.00,,CLR,0.00,VWS V13.00,2013-04-28 19:23:00,
2013-04-28 15:28:00,73.0,36.2,30.19,SSE,157,6.3,10.1,26,0.00,,CLR,0.00,VWS V13.00,2013-04-28 19:28:00,
2013-04-28 15:33:00,73.2,36.3,30.19,West,279,0.0,10.1,26,0.00,,FEW080,0.00,VWS V13.00,2013-04-28 19:33:00,
2013-04-28 15:38:00,73.2,36.3,30.19,South,188,7.6,10.1,26,0.00,,FEW080,0.00,VWS V13.00,2013-04-28 19:38:00,
2013-04-28 15:43:00,72.3,35.5,30.16,SW,231,8.3,8.3,26,0.00,,FEW080,0.00,VWS V13.00,2013-04-28 19:43:00,
2013-04-28 15:49:00,72.0,35.2,30.16,WSW,251,5.8,8.7,26,0.00,,FEW080,0.00,VWS V13.00,2013-04-28 19:49:00,
2013-04-28 15:54:00,72.0,35.2,30.16,South,173,5.4,9.2,26,0.00,,FEW080,0.00,VWS V13.00,2013-04-28 19:54:00,
2013-04-28 15:59:00,72.0,35.2,30.16,SSE,153,5.8,9.2,26,0.00,,FEW080,0.00,VWS V13.00,2013-04-28 19:59:00,
2013-04-28 16:04:00,72.1,35.4,30.16,SSE,162,5.8,6.3,26,0.00,,FEW080,0.00,VWS V13.00,2013-04-28 20:04:00,
2013-04-28 16:09:00,71.4,34.8,30.16,SSE,161,6.3,11.0,26,0.00,,FEW080,0.00,VWS V13.00,2013-04-28 20:09:00,
2013-04-28 16:14:00,70.7,34.2,30.16,South,190,6.3,11.0,26,0.00,,FEW080,0.00,VWS V13.00,2013-04-28 20:14:00,
2013-04-28 16:19:00,70.7,35.1,30.16,South,180,5.8,12.8,27,0.00,,FEW080,0.00,VWS V13.00,2013-04-28 20:19:00,
2013-04-28 16:24:00,70.5,35.0,30.16,South,190,5.4,8.1,27,0.00,,FEW080,0.00,VWS V13.00,2013-04-28 20:24:00,
2013-04-28 16:29:00,70.0,34.5,30.16,SSE,164,7.6,9.6,27,0.00,,FEW080,0.00,VWS V13.00,2013-04-28 20:29:00,
2013-04-28 16:34:00,70.2,34.7,30.16,WSW,240,4.0,9.6,27,0.00,,CLR,0.00,VWS V13.00,2013-04-28 20:34:00,
2013-04-28 16:39:00,70.0,34.5,30.16,SSW,193,6.7,10.1,27,0.00,,CLR,0.00,VWS V13.00,2013-04-28 20:39:00,
2013-04-28 16:44:00,69.8,34.3,30.16,SSW,201,8.1,8.7,27,0.00,,CLR,0.00,VWS V13.00,2013-04-28 20:44:00,
2013-04-28 16:49:00,69.6,34.2,30.16,South,185,7.6,8.7,27,0.00,,CLR,0.00,VWS V13.00,2013-04-28 20:49:00,
2013-04-28 16:54:00,69.6,34.2,30.16,South,185,3.1,8.7,27,0.00,,CLR,0.00,VWS V13.00,2013-04-28 20:54:00,
2013-04-28 16:59:00,69.4,34.0,30.16,South,172,4.0,11.0,27,0.00,,CLR,0.00,VWS V13.00,2013-04-28 20:59:00,
2013-04-28 17:04:00,69.4,34.0,30.16,SSW,207,6.3,7.6,27,0.00,,CLR,0.00,VWS V13.00,2013-04-28 21:04:00,
2013-04-28 17:09:00,68.9,33.6,30.16,West,274,7.6,9.6,27,0.00,,CLR,0.00,VWS V13.00,2013-04-28 21:09:00,
2013-04-28 17:15:00,68.5,33.3,30.16,West,270,5.4,9.6,27,0.00,,CLR,0.00,VWS V13.00,2013-04-28 21:15:00,
2013-04-28 17:20:00,68.4,34.0,30.16,SSW,209,6.3,9.6,28,0.00,,CLR,0.00,VWS V13.00,2013-04-28 21:20:00,
2013-04-28 17:25:00,68.2,33.9,30.16,SW,222,4.9,8.1,28,0.00,,CLR,0.00,VWS V13.00,2013-04-28 21:25:00,
2013-04-28 17:30:00,68.0,33.7,30.13,South,177,2.7,8.7,28,0.00,,CLR,0.00,VWS V13.00,2013-04-28 21:30:00,
2013-04-28 17:35:00,68.0,33.7,30.13,South,177,5.4,8.7,28,0.00,,CLR,0.00,VWS V13.00,2013-04-28 21:35:00,
2013-04-28 17:40:00,67.6,34.3,30.13,South,184,5.4,8.7,29,0.00,,CLR,0.00,VWS V13.00,2013-04-28 21:40:00,
2013-04-28 17:45:00,67.5,34.1,30.13,SW,220,4.0,5.8,29,0.00,,CLR,0.00,VWS V13.00,2013-04-28 21:45:00,
2013-04-28 17:50:00,67.3,34.0,30.13,South,183,6.3,8.1,29,0.00,,CLR,0.00,VWS V13.00,2013-04-28 21:50:00,
2013-04-28 17:55:00,66.9,33.7,30.13,SW,219,5.4,8.1,29,0.00,,CLR,0.00,VWS V13.00,2013-04-28 21:55:00,
2013-04-28 18:00:00,66.7,33.5,30.13,SSW,203,5.8,8.1,29,0.00,,CLR,0.00,VWS V13.00,2013-04-28 22:00:00,
2013-04-28 18:05:00,66.6,33.3,30.13,South,178,4.0,6.3,29,0.00,,CLR,0.00,VWS V13.00,2013-04-28 22:05:00,
2013-04-28 18:10:00,66.4,33.2,30.13,SSW,200,5.8,7.2,29,0.00,,CLR,0.00,VWS V13.00,2013-04-28 22:10:00,
2013-04-28 18:15:00,66.2,33.0,30.13,SW,235,8.3,8.3,29,0.00,,CLR,0.00,VWS V13.00,2013-04-28 22:15:00,
2013-04-28 18:20:00,66.0,33.7,30.13,SSE,154,4.0,8.3,30,0.00,,CLR,0.00,VWS V13.00,2013-04-28 22:20:00,
2013-04-28 18:25:00,65.7,32.6,30.13,SSW,204,4.0,10.1,29,0.00,,CLR,0.00,VWS V13.00,2013-04-28 22:25:00,
2013-04-28 18:31:00,65.3,32.3,30.13,SW,224,7.2,10.1,29,0.00,,CLR,0.00,VWS V13.00,2013-04-28 22:31:00,
2013-04-28 18:36:00,64.9,32.0,30.13,South,182,7.6,10.5,29,0.00,,CLR,0.00,VWS V13.00,2013-04-28 22:36:00,
2013-04-28 18:41:00,64.4,30.6,30.13,SSW,193,8.7,13.2,28,0.00,,CLR,0.00,VWS V13.00,2013-04-28 22:41:00,
2013-04-28 18:46:00,63.9,31.0,30.13,South,179,7.6,13.2,29,0.00,,CLR,0.00,VWS V13.00,2013-04-28 22:46:00,
2013-04-28 18:51:00,63.5,30.7,30.13,WSW,246,5.4,13.2,29,0.00,,CLR,0.00,VWS V13.00,2013-04-28 22:51:00,
2013-04-28 18:56:00,63.3,30.5,30.13,South,185,4.9,13.2,29,0.00,,CLR,0.00,VWS V13.00,2013-04-28 22:56:00,
2013-04-28 19:01:00,63.0,30.2,30.13,South,169,7.6,13.2,29,0.00,,CLR,0.00,VWS V13.00,2013-04-28 23:01:00,
2013-04-28 19:06:00,62.8,30.1,30.13,South,185,6.3,11.0,29,0.00,,CLR,0.00,VWS V13.00,2013-04-28 23:06:00,
2013-04-28 19:11:00,62.4,29.8,30.13,SSW,204,7.6,11.0,29,0.00,,CLR,0.00,VWS V13.00,2013-04-28 23:11:00,
2013-04-28 19:16:00,62.2,29.6,30.13,SSW,192,6.7,11.0,29,0.00,,CLR,0.00,VWS V13.00,2013-04-28 23:16:00,
2013-04-28 19:21:00,61.9,29.3,30.13,South,177,5.4,5.4,29,0.00,,CLR,0.00,VWS V13.00,2013-04-28 23:21:00,
2013-04-28 19:26:00,61.7,29.1,30.13,SSE,164,4.9,8.1,29,0.00,,CLR,0.00,VWS V13.00,2013-04-28 23:26:00,
2013-04-28 19:31:00,61.3,28.8,30.13,South,189,4.0,8.7,29,0.00,,CLR,0.00,VWS V13.00,2013-04-28 23:31:00,
2013-04-28 19:36:00,61.2,28.7,30.13,SSW,203,3.6,8.7,29,0.00,,CLR,0.00,VWS V13.00,2013-04-28 23:36:00,
2013-04-28 19:41:00,61.0,28.5,30.13,SSE,168,4.9,5.8,29,0.00,,CLR,0.00,VWS V13.00,2013-04-28 23:41:00,
2013-04-28 19:46:00,60.6,29.0,30.13,South,184,4.9,6.3,30,0.00,,CLR,0.00,VWS V13.00,2013-04-28 23:46:00,
2013-04-28 19:51:00,60.4,28.9,30.13,SSW,199,5.8,7.6,30,0.00,,CLR,0.00,VWS V13.00,2013-04-28 23:51:00,
2013-04-28 19:56:00,60.3,28.7,30.13,SSE,160,5.4,8.1,30,0.00,,CLR,0.00,VWS V13.00,2013-04-28 23:56:00,
2013-04-28 20:01:00,60.1,28.6,30.13,SSW,203,5.4,6.3,30,0.00,,CLR,0.00,VWS V13.00,2013-04-29 00:01:00,
2013-04-28 20:06:00,59.9,28.4,30.13,South,170,6.3,8.1,30,0.00,,-RA,0.00,VWS V13.00,2013-04-29 00:06:00,
2013-04-28 20:11:00,59.7,28.3,30.13,South,189,5.4,8.1,30,0.00,,-RA,0.00,VWS V13.00,2013-04-29 00:11:00,
2013-04-28 20:17:00,59.4,27.9,30.13,South,185,5.8,8.3,30,0.00,,-RA,0.00,VWS V13.00,2013-04-29 00:17:00,
2013-04-28 20:22:00,59.4,27.9,30.13,South,186,6.7,6.7,30,0.00,,-RA,0.00,VWS V13.00,2013-04-29 00:22:00,
2013-04-28 20:27:00,59.0,27.6,30.13,SSW,198,4.5,6.7,30,0.00,,-RA,0.00,VWS V13.00,2013-04-29 00:27:00,
2013-04-28 20:32:00,58.8,28.3,30.16,SSE,149,7.6,8.7,31,0.00,,-RA,0.00,VWS V13.00,2013-04-29 00:32:00,
2013-04-28 20:37:00,58.5,28.0,30.16,South,173,5.8,8.7,31,0.00,,-RA,0.00,VWS V13.00,2013-04-29 00:37:00,
2013-04-28 20:42:00,58.3,27.8,30.16,South,174,5.4,8.3,31,0.00,,-RA,0.00,VWS V13.00,2013-04-29 00:42:00,
2013-04-28 20:47:00,58.3,27.8,30.16,South,188,7.6,10.1,31,0.00,,-RA,0.00,VWS V13.00,2013-04-29 00:47:00,
2013-04-28 20:52:00,58.1,27.6,30.16,South,173,6.3,10.1,31,0.00,,-RA,0.00,VWS V13.00,2013-04-29 00:52:00,
2013-04-28 20:57:00,58.1,27.6,30.16,South,172,4.0,10.1,31,0.00,,-RA,0.00,VWS V13.00,2013-04-29 00:57:00,
2013-04-28 21:02:00,57.9,27.5,30.16,South,177,6.3,8.7,31,0.00,,-RA,0.00,VWS V13.00,2013-04-29 01:02:00,
2013-04-28 21:07:00,57.9,27.5,30.16,SW,229,8.1,8.7,31,0.00,,-RA,0.00,VWS V13.00,2013-04-29 01:07:00,
2013-04-28 21:12:00,57.9,30.5,30.16,South,173,5.4,8.7,35,0.00,,-RA,0.00,VWS V13.00,2013-04-29 01:12:00,
2013-04-28 21:17:00,57.2,38.2,30.16,SSE,167,5.4,8.7,49,0.00,,-RA,0.00,VWS V13.00,2013-04-29 01:17:00,
2013-04-28 21:22:00,56.8,38.4,30.16,SSW,204,3.6,10.1,50,0.00,,-RA,0.00,VWS V13.00,2013-04-29 01:22:00,
2013-04-28 21:27:00,56.7,39.2,30.16,SSW,204,5.4,10.1,52,0.00,,-RA,0.00,VWS V13.00,2013-04-29 01:27:00,
2013-04-28 21:32:00,56.3,39.9,30.16,South,178,3.6,10.1,54,0.00,,CLR,0.00,VWS V13.00,2013-04-29 01:32:00,
2013-04-28 21:37:00,56.3,39.9,30.16,South,182,3.6,10.1,54,0.00,,CLR,0.00,VWS V13.00,2013-04-29 01:37:00,
2013-04-28 21:43:00,56.1,40.7,30.16,SW,223,2.7,4.0,56,0.00,,CLR,0.00,VWS V13.00,2013-04-29 01:43:00,
2013-04-28 21:48:00,55.9,40.0,30.16,SSW,208,3.1,6.3,55,0.00,,CLR,0.00,VWS V13.00,2013-04-29 01:48:00,
2013-04-28 21:53:00,55.8,40.3,30.16,South,190,5.8,6.3,56,0.00,,CLR,0.00,VWS V13.00,2013-04-29 01:53:00,
2013-04-28 21:58:00,55.6,40.2,30.16,SSW,199,4.9,6.3,56,0.00,,CLR,0.00,VWS V13.00,2013-04-29 01:58:00,
2013-04-28 22:03:00,55.6,39.7,30.16,South,190,5.8,8.7,55,0.00,,CLR,0.00,VWS V13.00,2013-04-29 02:03:00,
2013-04-28 22:08:00,55.4,39.0,30.16,SSE,166,5.8,8.7,54,0.00,,CLR,0.00,VWS V13.00,2013-04-29 02:08:00,
2013-04-28 22:13:00,55.2,39.8,30.16,SW,218,5.4,8.7,56,0.00,,CLR,0.00,VWS V13.00,2013-04-29 02:13:00,
2013-04-28 22:18:00,55.2,39.3,30.16,South,177,5.4,8.7,55,0.00,,CLR,0.00,VWS V13.00,2013-04-29 02:18:00,
2013-04-28 22:23:00,55.2,39.3,30.16,South,174,5.4,5.8,55,0.00,,CLR,0.00,VWS V13.00,2013-04-29 02:23:00,
2013-04-28 22:28:00,55.0,39.2,30.16,SSW,195,8.1,8.3,55,0.00,,CLR,0.00,VWS V13.00,2013-04-29 02:28:00,
2013-04-28 22:33:00,55.0,39.2,30.19,SSW,213,5.8,8.3,55,0.00,,CLR,0.00,VWS V13.00,2013-04-29 02:33:00,
2013-04-28 22:38:00,55.0,39.2,30.19,South,180,5.4,8.3,55,0.00,,CLR,0.00,VWS V13.00,2013-04-29 02:38:00,
2013-04-28 22:43:00,54.9,39.0,30.19,South,172,5.4,8.3,55,0.00,,CLR,0.00,VWS V13.00,2013-04-29 02:43:00,
2013-04-28 22:48:00,54.9,39.5,30.19,South,178,6.3,8.3,56,0.00,,CLR,0.00,VWS V13.00,2013-04-29 02:48:00,
2013-04-28 22:54:00,54.9,39.5,30.19,SSW,193,4.0,8.3,56,0.00,,CLR,0.00,VWS V13.00,2013-04-29 02:54:00,
2013-04-28 22:59:00,54.7,39.8,30.19,South,187,5.4,8.3,57,0.00,,CLR,0.00,VWS V13.00,2013-04-29 02:59:00,
2013-04-28 23:04:00,54.7,39.8,30.19,SSW,197,4.0,6.3,57,0.00,,CLR,0.00,VWS V13.00,2013-04-29 03:04:00,
2013-04-28 23:09:00,54.7,39.8,30.19,SSW,202,4.9,6.3,57,0.00,,CLR,0.00,VWS V13.00,2013-04-29 03:09:00,
2013-04-28 23:14:00,54.5,39.6,30.19,South,191,6.3,6.3,57,0.00,,CLR,0.00,VWS V13.00,2013-04-29 03:14:00,
2013-04-28 23:19:00,54.5,39.6,30.19,SSW,195,3.6,7.6,57,0.00,,CLR,0.00,VWS V13.00,2013-04-29 03:19:00,
2013-04-28 23:24:00,54.5,39.6,30.19,SSW,204,5.4,7.6,57,0.00,,CLR,0.00,VWS V13.00,2013-04-29 03:24:00,
2013-04-28 23:29:00,54.5,39.6,30.19,South,186,4.9,7.6,57,0.00,,CLR,0.00,VWS V13.00,2013-04-29 03:29:00,
2013-04-28 23:34:00,54.3,39.9,30.19,South,181,5.4,7.6,58,0.00,,CLR,0.00,VWS V13.00,2013-04-29 03:34:00,
2013-04-28 23:39:00,54.3,39.9,30.19,South,181,3.6,7.6,58,0.00,,CLR,0.00,VWS V13.00,2013-04-29 03:39:00,
2013-04-28 23:44:00,54.3,40.3,30.19,South,183,4.0,5.4,59,0.00,,CLR,0.00,VWS V13.00,2013-04-29 03:44:00,
2013-04-28 23:49:00,54.1,40.1,30.19,South,184,4.9,6.3,59,0.00,,CLR,0.00,VWS V13.00,2013-04-29 03:49:00,
2013-04-28 23:54:00,54.0,40.4,30.19,SSW,204,4.0,6.3,60,0.00,,CLR,0.00,VWS V13.00,2013-04-29 03:54:00,
2013-04-28 23:59:00,54.0,40.4,30.19,SSW,207,2.7,6.3,60,0.00,,CLR,0.00,VWS V13.00,2013-04-29 03:59:00,